This is the latest recevied weather packets stored in our database for station/object K1JO. If no packets are shown the sender has not sent any weather packets the latest 10 day(s).
| Time | Temp. | Humidity | Pressure | Rain* | Wind** | Luminosity | Snow |
|---|---|---|---|---|---|---|---|
| 1787423072 | 25° C | 52% | 1015.3 hPa | 0 mm | - | 167 W/m² | - |
| 1787422772 | 25° C | 51% | 1015.3 hPa | 0 mm | - | 154 W/m² | - |
| 1787422470 | 25° C | 51% | 1015.4 hPa | 0 mm | - | 127 W/m² | - |
| 1787422164 | 25.56° C | 50% | 1015.5 hPa | 0 mm | - | 125 W/m² | - |
| 1787421861 | 25.56° C | 47% | 1015.6 hPa | 0 mm | - | 125 W/m² | - |
| 1787421560 | 26.11° C | 46% | 1015.3 hPa | 0 mm | - | 147 W/m² | - |
| 1787421257 | 25.56° C | 46% | 1015.5 hPa | 0 mm | - | 176 W/m² | - |
| 1787420951 | 25.56° C | 46% | 1015.3 hPa | 0 mm | - | 192 W/m² | - |
| 1787420646 | 26.11° C | 47% | 1015.5 hPa | 0 mm | - | 191 W/m² | - |
| 1787420342 | 25.56° C | 44% | 1015.4 hPa | 0 mm | - | 216 W/m² | - |
| 1787420039 | 26.11° C | 45% | 1015.5 hPa | 0 mm | - | 239 W/m² | - |
| 1787419735 | 26.11° C | 45% | 1015.7 hPa | 0 mm | - | 274 W/m² | - |
| 1787419430 | 26.11° C | 44% | 1015.9 hPa | 0 mm | - | 282 W/m² | - |
| 1787419125 | 26.11° C | 45% | 1015.7 hPa | 0 mm | - | 293 W/m² | - |
| 1787418820 | 26.11° C | 43% | 1015.7 hPa | 0 mm | - | 282 W/m² | - |
| 1787418517 | 26.11° C | 44% | 1015.8 hPa | 0 mm | - | 250 W/m² | - |
| 1787418213 | 26.11° C | 43% | 1015.7 hPa | 0 mm | - | 284 W/m² | - |
| 1787417908 | 26.11° C | 44% | 1016 hPa | 0 mm | - | 310 W/m² | - |
| 1787417605 | 26.67° C | 43% | 1015.8 hPa | 0 mm | - | 347 W/m² | - |
| 1787417304 | 26.11° C | 43% | 1016 hPa | 0 mm | - | 369 W/m² | - |
| 1787417000 | 26.67° C | 42% | 1015.8 hPa | 0 mm | - | 356 W/m² | - |
| 1787416695 | 26.67° C | 42% | 1015.8 hPa | 0 mm | - | 357 W/m² | - |
| 1787416391 | 26.11° C | 44% | 1015.9 hPa | 0 mm | - | 336 W/m² | - |
| 1787416090 | 26.11° C | 44% | 1015.9 hPa | 0 mm | - | 330 W/m² | - |
| 1787415786 | 26.11° C | 43% | 1015.8 hPa | 0 mm | - | 316 W/m² | - |
* Rain latest hour (hover to see other rain measurements)
** Current wind speed in m/s (hover to see current wind gust speed)